Time,TemperatureF,DewpointF,PressureIn,WindDirection,WindDirectionDegrees,WindSpeedMPH,WindSpeedGustMPH,Humidity,HourlyPrecipIn,Conditions,Clouds,dailyrainin,SolarRadiationWatts/m^2,SoftwareType,DateUTC
2013-04-17 00:03:00,63.0,55.0,-100.00,North,353,1.0,4.0,75,0.00,,,0.00,0.000000,,2013-04-17 04:03:00,
2013-04-17 00:33:00,62.0,57.0,-100.00,SW,236,2.0,4.0,85,0.00,,,0.00,0.000000,,2013-04-17 04:33:00,
2013-04-17 00:43:00,62.0,57.0,-100.00,SW,236,2.0,4.0,85,0.00,,,0.00,0.000000,,2013-04-17 04:43:00,
2013-04-17 00:53:00,62.0,57.0,-100.00,SW,236,2.0,4.0,85,0.00,,,0.00,0.000000,,2013-04-17 04:53:00,
2013-04-17 01:03:00,62.0,57.0,-100.00,SW,236,2.0,4.0,85,0.00,,,0.00,0.000000,,2013-04-17 05:03:00,
2013-04-17 01:32:00,62.0,57.0,-100.00,WSW,254,3.0,5.0,84,0.00,,,0.00,0.000000,,2013-04-17 05:32:00,
2013-04-17 01:43:00,62.0,57.0,-100.00,WSW,254,3.0,5.0,84,0.00,,,0.00,0.000000,,2013-04-17 05:43:00,
2013-04-17 01:52:00,62.0,57.0,-100.00,WSW,254,3.0,5.0,84,0.00,,,0.00,0.000000,,2013-04-17 05:52:00,
2013-04-17 02:02:00,62.0,57.0,-100.00,WSW,254,3.0,5.0,84,0.00,,,0.00,0.000000,,2013-04-17 06:02:00,
2013-04-17 02:32:00,62.0,58.0,-100.00,WSW,250,2.0,5.0,86,0.00,,,0.00,0.000000,,2013-04-17 06:32:00,
2013-04-17 02:42:00,62.0,58.0,-100.00,WSW,250,2.0,5.0,86,0.00,,,0.00,0.000000,,2013-04-17 06:42:00,
2013-04-17 02:52:00,62.0,58.0,-100.00,WSW,250,2.0,5.0,86,0.00,,,0.00,0.000000,,2013-04-17 06:52:00,
2013-04-17 03:02:00,62.0,58.0,-100.00,WSW,250,2.0,5.0,86,0.00,,,0.00,0.000000,,2013-04-17 07:02:00,
2013-04-17 03:32:00,60.0,58.0,-100.00,West,281,1.0,4.0,93,0.00,,,0.00,0.000000,,2013-04-17 07:32:00,
2013-04-17 03:42:00,60.0,58.0,-100.00,West,281,1.0,4.0,93,0.00,,,0.00,0.000000,,2013-04-17 07:42:00,
2013-04-17 03:52:00,60.0,58.0,-100.00,West,281,1.0,4.0,93,0.00,,,0.00,0.000000,,2013-04-17 07:52:00,
2013-04-17 04:02:00,60.0,58.0,-100.00,West,281,1.0,4.0,93,0.00,,,0.00,0.000000,,2013-04-17 08:02:00,
2013-04-17 04:33:00,58.0,57.0,-100.00,SSW,210,1.0,5.0,96,0.00,,,0.00,0.000000,,2013-04-17 08:33:00,
2013-04-17 04:42:00,58.0,57.0,-100.00,SSW,210,1.0,5.0,96,0.00,,,0.00,0.000000,,2013-04-17 08:42:00,
2013-04-17 04:52:00,58.0,57.0,-100.00,SSW,210,1.0,5.0,96,0.00,,,0.00,0.000000,,2013-04-17 08:52:00,
2013-04-17 05:02:00,58.0,57.0,-100.00,SSW,210,1.0,5.0,96,0.00,,,0.00,0.000000,,2013-04-17 09:02:00,
2013-04-17 05:33:00,59.0,58.0,-100.00,WSW,248,1.0,4.0,95,0.00,,,0.00,0.000000,,2013-04-17 09:33:00,
2013-04-17 05:42:00,59.0,58.0,-100.00,WSW,248,1.0,4.0,95,0.00,,,0.00,0.000000,,2013-04-17 09:42:00,
2013-04-17 05:53:00,59.0,58.0,-100.00,WSW,248,1.0,4.0,95,0.00,,,0.00,0.000000,,2013-04-17 09:53:00,
2013-04-17 06:03:00,59.0,58.0,-100.00,WSW,248,1.0,4.0,95,0.00,,,0.00,0.000000,,2013-04-17 10:03:00,
2013-04-17 06:33:00,59.0,57.0,-100.00,West,263,1.0,4.0,94,0.00,,,0.00,0.000000,,2013-04-17 10:33:00,
2013-04-17 06:43:00,59.0,57.0,-100.00,West,263,1.0,4.0,94,0.00,,,0.00,0.000000,,2013-04-17 10:43:00,
2013-04-17 06:53:00,59.0,57.0,-100.00,West,263,1.0,4.0,94,0.00,,,0.00,0.000000,,2013-04-17 10:53:00,
2013-04-17 07:02:00,59.0,57.0,-100.00,West,263,1.0,4.0,94,0.00,,,0.00,0.000000,,2013-04-17 11:02:00,
2013-04-17 07:32:00,58.0,57.0,-100.00,NNW,333,2.0,4.0,96,0.00,,,0.00,0.000000,,2013-04-17 11:32:00,
2013-04-17 07:42:00,58.0,57.0,-100.00,NNW,333,2.0,4.0,96,0.00,,,0.00,0.000000,,2013-04-17 11:42:00,
2013-04-17 07:52:00,58.0,57.0,-100.00,NNW,333,2.0,4.0,96,0.00,,,0.00,0.000000,,2013-04-17 11:52:00,
2013-04-17 08:03:00,58.0,57.0,-100.00,NNW,333,2.0,4.0,96,0.00,,,0.00,0.000000,,2013-04-17 12:03:00,
2013-04-17 08:32:00,61.0,60.0,-100.00,WSW,248,1.0,4.0,95,0.00,,,0.00,0.000000,,2013-04-17 12:32:00,
2013-04-17 08:42:00,61.0,60.0,-100.00,WSW,248,1.0,4.0,95,0.00,,,0.00,0.000000,,2013-04-17 12:42:00,
2013-04-17 08:52:00,61.0,60.0,-100.00,WSW,248,1.0,4.0,95,0.00,,,0.00,0.000000,,2013-04-17 12:52:00,
2013-04-17 09:02:00,61.0,60.0,-100.00,WSW,248,1.0,4.0,95,0.00,,,0.00,0.000000,,2013-04-17 13:02:00,
2013-04-17 09:32:00,68.0,62.0,-100.00,East,93,2.0,6.0,80,0.00,,,0.00,3.000000,,2013-04-17 13:32:00,
2013-04-17 09:42:00,68.0,62.0,-100.00,East,93,2.0,6.0,80,0.00,,,0.00,3.000000,,2013-04-17 13:42:00,
2013-04-17 09:52:00,68.0,62.0,-100.00,East,93,2.0,6.0,80,0.00,,,0.00,3.000000,,2013-04-17 13:52:00,
2013-04-17 10:02:00,68.0,62.0,-100.00,East,93,2.0,6.0,80,0.00,,,0.00,3.000000,,2013-04-17 14:02:00,
2013-04-17 10:32:00,72.0,61.0,-100.00,East,98,3.0,6.0,68,0.00,,,0.00,217.000000,,2013-04-17 14:32:00,
2013-04-17 10:43:00,72.0,61.0,-100.00,East,98,3.0,6.0,68,0.00,,,0.00,217.000000,,2013-04-17 14:43:00,
2013-04-17 10:52:00,72.0,61.0,-100.00,East,98,3.0,6.0,68,0.00,,,0.00,217.000000,,2013-04-17 14:52:00,
2013-04-17 11:02:00,72.0,61.0,-100.00,East,98,3.0,6.0,68,0.00,,,0.00,217.000000,,2013-04-17 15:02:00,
2013-04-17 11:33:00,75.0,59.0,-100.00,NE,38,4.0,8.0,58,0.00,,,0.00,300.000000,,2013-04-17 15:33:00,
2013-04-17 11:43:00,75.0,59.0,-100.00,NE,38,4.0,8.0,58,0.00,,,0.00,300.000000,,2013-04-17 15:43:00,
2013-04-17 11:53:00,75.0,59.0,-100.00,NE,38,4.0,8.0,58,0.00,,,0.00,300.000000,,2013-04-17 15:53:00,
2013-04-17 12:03:00,75.0,59.0,-100.00,NE,38,4.0,8.0,58,0.00,,,0.00,300.000000,,2013-04-17 16:03:00,
2013-04-17 12:32:00,77.0,60.0,-100.00,ENE,66,4.0,10.0,56,0.00,,,0.00,94.000000,,2013-04-17 16:32:00,
2013-04-17 12:42:00,77.0,60.0,-100.00,ENE,66,4.0,10.0,56,0.00,,,0.00,94.000000,,2013-04-17 16:42:00,
2013-04-17 12:52:00,77.0,60.0,-100.00,ENE,66,4.0,10.0,56,0.00,,,0.00,94.000000,,2013-04-17 16:52:00,
2013-04-17 13:02:00,77.0,60.0,-100.00,ENE,66,4.0,10.0,56,0.00,,,0.00,94.000000,,2013-04-17 17:02:00,
2013-04-17 13:33:00,80.0,60.0,-100.00,NE,48,5.0,10.0,51,0.00,,,0.00,592.000000,,2013-04-17 17:33:00,
2013-04-17 13:42:00,80.0,60.0,-100.00,NE,48,5.0,10.0,51,0.00,,,0.00,592.000000,,2013-04-17 17:42:00,
2013-04-17 13:52:00,80.0,60.0,-100.00,NE,48,5.0,10.0,51,0.00,,,0.00,592.000000,,2013-04-17 17:52:00,
2013-04-17 14:02:00,80.0,60.0,-100.00,NE,48,5.0,10.0,51,0.00,,,0.00,592.000000,,2013-04-17 18:02:00,
2013-04-17 14:33:00,74.0,63.0,-100.00,SSW,204,2.0,11.0,69,0.02,,,0.02,293.000000,,2013-04-17 18:33:00,
2013-04-17 14:42:00,74.0,63.0,-100.00,SSW,204,2.0,11.0,69,0.02,,,0.02,293.000000,,2013-04-17 18:42:00,
2013-04-17 14:52:00,74.0,63.0,-100.00,SSW,204,2.0,11.0,69,0.02,,,0.02,293.000000,,2013-04-17 18:52:00,
2013-04-17 15:02:00,74.0,63.0,-100.00,SSW,204,2.0,11.0,69,0.02,,,0.02,293.000000,,2013-04-17 19:02:00,
2013-04-17 15:32:00,70.0,54.0,-100.00,SSW,207,6.0,11.0,57,0.03,,,0.05,365.000000,,2013-04-17 19:32:00,
2013-04-17 15:42:00,70.0,54.0,-100.00,SSW,207,6.0,11.0,57,0.03,,,0.05,365.000000,,2013-04-17 19:42:00,
2013-04-17 15:52:00,70.0,54.0,-100.00,SSW,207,6.0,11.0,57,0.03,,,0.05,365.000000,,2013-04-17 19:52:00,
2013-04-17 16:03:00,70.0,54.0,-100.00,SSW,207,6.0,11.0,57,0.03,,,0.05,365.000000,,2013-04-17 20:03:00,
2013-04-17 16:33:00,64.0,60.0,-100.00,WSW,240,5.0,12.0,88,0.06,,,0.11,0.000000,,2013-04-17 20:33:00,
2013-04-17 16:42:00,64.0,60.0,-100.00,WSW,240,5.0,12.0,88,0.06,,,0.11,0.000000,,2013-04-17 20:42:00,
2013-04-17 16:52:00,64.0,60.0,-100.00,WSW,240,5.0,12.0,88,0.06,,,0.11,0.000000,,2013-04-17 20:52:00,
2013-04-17 17:03:00,64.0,60.0,-100.00,WSW,240,5.0,12.0,88,0.06,,,0.11,0.000000,,2013-04-17 21:03:00,
2013-04-17 17:33:00,66.0,59.0,-100.00,NE,40,2.0,11.0,79,0.01,,,0.12,49.000000,,2013-04-17 21:33:00,
2013-04-17 17:43:00,66.0,59.0,-100.00,NE,40,2.0,11.0,79,0.01,,,0.12,49.000000,,2013-04-17 21:43:00,
2013-04-17 17:53:00,66.0,59.0,-100.00,NE,40,2.0,11.0,79,0.01,,,0.12,49.000000,,2013-04-17 21:53:00,
2013-04-17 18:02:00,66.0,59.0,-100.00,NE,40,2.0,11.0,79,0.01,,,0.12,49.000000,,2013-04-17 22:02:00,
2013-04-17 18:33:00,63.0,62.0,-100.00,WSW,239,4.0,8.0,95,0.04,,,0.16,0.000000,,2013-04-17 22:33:00,
2013-04-17 18:43:00,63.0,62.0,-100.00,WSW,239,4.0,8.0,95,0.04,,,0.16,0.000000,,2013-04-17 22:43:00,
2013-04-17 18:53:00,63.0,62.0,-100.00,WSW,239,4.0,8.0,95,0.04,,,0.16,0.000000,,2013-04-17 22:53:00,
2013-04-17 19:02:00,63.0,62.0,-100.00,WSW,239,4.0,8.0,95,0.04,,,0.16,0.000000,,2013-04-17 23:02:00,
2013-04-17 19:32:00,62.0,62.0,-100.00,SSW,207,2.0,7.0,99,0.00,,,0.16,0.000000,,2013-04-17 23:32:00,
2013-04-17 19:42:00,62.0,62.0,-100.00,SSW,207,2.0,7.0,99,0.00,,,0.16,0.000000,,2013-04-17 23:42:00,
2013-04-17 19:52:00,62.0,62.0,-100.00,SSW,207,2.0,7.0,99,0.00,,,0.16,0.000000,,2013-04-17 23:52:00,
2013-04-17 20:02:00,62.0,62.0,-100.00,SSW,207,2.0,7.0,99,0.00,,,0.16,0.000000,,2013-04-18 00:02:00,
2013-04-17 20:32:00,62.0,60.0,-100.00,SSE,150,2.0,7.0,94,0.00,,,0.16,0.000000,,2013-04-18 00:32:00,
2013-04-17 20:43:00,62.0,60.0,-100.00,SSE,150,2.0,7.0,94,0.00,,,0.16,0.000000,,2013-04-18 00:43:00,
2013-04-17 20:52:00,62.0,60.0,-100.00,SSE,150,2.0,7.0,94,0.00,,,0.16,0.000000,,2013-04-18 00:52:00,
2013-04-17 21:02:00,62.0,60.0,-100.00,SSE,150,2.0,7.0,94,0.00,,,0.16,0.000000,,2013-04-18 01:02:00,
2013-04-17 21:32:00,61.0,60.0,-100.00,NE,39,2.0,7.0,95,0.01,,,0.17,0.000000,,2013-04-18 01:32:00,
2013-04-17 21:42:00,61.0,60.0,-100.00,NE,39,2.0,7.0,95,0.01,,,0.17,0.000000,,2013-04-18 01:42:00,
2013-04-17 21:52:00,61.0,60.0,-100.00,NE,39,2.0,7.0,95,0.01,,,0.17,0.000000,,2013-04-18 01:52:00,
2013-04-17 22:02:00,61.0,60.0,-100.00,NE,39,2.0,7.0,95,0.01,,,0.17,0.000000,,2013-04-18 02:02:00,
2013-04-17 22:32:00,61.0,60.0,-100.00,SE,136,2.0,6.0,95,0.00,,,0.17,0.000000,,2013-04-18 02:32:00,
2013-04-17 22:42:00,61.0,60.0,-100.00,SE,136,2.0,6.0,95,0.00,,,0.17,0.000000,,2013-04-18 02:42:00,
2013-04-17 22:52:00,61.0,60.0,-100.00,SE,136,2.0,6.0,95,0.00,,,0.17,0.000000,,2013-04-18 02:52:00,
2013-04-17 23:02:00,61.0,60.0,-100.00,SE,136,2.0,6.0,95,0.00,,,0.17,0.000000,,2013-04-18 03:02:00,
2013-04-17 23:33:00,60.0,60.0,-100.00,West,267,2.0,4.0,100,0.00,,,0.17,0.000000,,2013-04-18 03:33:00,
2013-04-17 23:43:00,60.0,60.0,-100.00,West,267,2.0,4.0,100,0.00,,,0.17,0.000000,,2013-04-18 03:43:00,
2013-04-17 23:53:00,60.0,60.0,-100.00,West,267,2.0,4.0,100,0.00,,,0.17,0.000000,,2013-04-18 03:53:00,